�������l�o���
Date,Time,MP-1(��Sv/h),MP-2(��Sv/h),MP-3(��Sv/h),MP-4(��Sv/h),MP-5(��Sv/h),MP-6(��Sv/h),MP-7(��Sv/h),MP-8(��Sv/h),����,����(m/s),���J
2023/01/26,00:00,0.557,0.811,0.510,1.047,0.715,0.321,0.580,0.553,��,3.0,��
2023/01/26,00:10,0.559,0.810,0.509,1.046,0.715,0.320,0.582,0.553,��,3.2,��
2023/01/26,00:20,0.557,0.810,0.509,1.046,0.716,0.320,0.582,0.552,��쐼,3.2,��
2023/01/26,00:30,0.557,0.812,0.510,1.045,0.714,0.321,0.581,0.554,��쐼,2.5,��
2023/01/26,00:40,0.557,0.810,0.509,1.045,0.717,0.321,0.584,0.555,��쐼,3.6,��
2023/01/26,00:50,0.559,0.810,0.510,1.047,0.717,0.321,0.582,0.554,��,3.8,��
2023/01/26,01:00,0.558,0.810,0.509,1.045,0.716,0.320,0.581,0.554,��쐼,4.4,��
2023/01/26,01:10,0.557,0.811,0.509,1.045,0.714,0.320,0.580,0.554,��,3.1,��
2023/01/26,01:20,0.557,0.810,0.510,1.046,0.715,0.321,0.581,0.554,��,2.0,��
2023/01/26,01:30,0.556,0.812,0.510,1.044,0.714,0.320,0.581,0.554,��쐼,2.2,��
2023/01/26,01:40,0.557,0.813,0.508,1.044,0.716,0.322,0.582,0.554,�쐼,4.1,��
2023/01/26,01:50,0.557,0.811,0.509,1.046,0.715,0.321,0.582,0.555,���쐼,4.1,��
2023/01/26,02:00,0.558,0.810,0.510,1.046,0.713,0.321,0.583,0.554,���쐼,3.8,��
2023/01/26,02:10,0.558,0.810,0.510,1.043,0.715,0.318,0.582,0.553,�쐼,3.2,��
2023/01/26,02:20,0.557,0.811,0.511,1.045,0.713,0.320,0.582,0.553,�쐼,3.0,��
2023/01/26,02:30,0.558,0.814,0.510,1.045,0.715,0.321,0.582,0.554,�쐼,2.4,��
2023/01/26,02:40,0.556,0.810,0.509,1.046,0.714,0.321,0.584,0.553,��쓌,1.7,��
2023/01/26,02:50,0.559,0.810,0.509,1.046,0.717,0.320,0.582,0.554,�쓌,1.9,��
2023/01/26,03:00,0.558,0.811,0.510,1.045,0.716,0.320,0.583,0.552,�쓌,2.4,��
2023/01/26,03:10,0.557,0.810,0.510,1.045,0.714,0.320,0.582,0.554,�쓌,3.2,��
2023/01/26,03:20,0.557,0.808,0.508,1.045,0.714,0.320,0.580,0.553,�쓌,3.5,��
2023/01/26,03:30,0.558,0.813,0.511,1.044,0.715,0.320,0.580,0.553,�쓌,2.7,��
2023/01/26,03:40,0.559,0.811,0.509,1.045,0.715,0.320,0.582,0.555,��쓌,2.8,��
2023/01/26,03:50,0.559,0.811,0.509,1.044,0.715,0.321,0.584,0.554,��쓌,2.7,��
2023/01/26,04:00,0.557,0.811,0.509,1.045,0.713,0.320,0.582,0.554,��,1.9,��
2023/01/26,04:10,0.557,0.812,0.510,1.046,0.715,0.320,0.581,0.553,��쓌,2.0,��
2023/01/26,04:20,0.557,0.810,0.510,1.044,0.715,0.322,0.582,0.553,��쐼,2.1,��
2023/01/26,04:30,0.557,0.810,0.509,1.043,0.714,0.321,0.581,0.552,��,1.0,��
2023/01/26,04:40,0.559,0.810,0.509,1.047,0.714,0.319,0.581,0.552,�쐼,1.5,��
2023/01/26,04:50,0.559,0.811,0.509,1.043,0.712,0.320,0.582,0.554,��쐼,1.0,��
2023/01/26,05:00,0.557,0.811,0.510,1.045,0.715,0.319,0.582,0.554,��,2.4,��
2023/01/26,05:10,0.558,0.810,0.509,1.044,0.714,0.319,0.581,0.553,��,3.0,��
2023/01/26,05:20,0.557,0.810,0.510,1.045,0.714,0.320,0.583,0.553,���쐼,3.3,��
2023/01/26,05:30,0.557,0.810,0.508,1.047,0.714,0.320,0.583,0.554,�쐼,3.1,��
2023/01/26,05:40,0.556,0.811,0.509,1.042,0.713,0.320,0.582,0.553,��,6.3,��
2023/01/26,05:50,0.557,0.811,0.507,1.045,0.714,0.320,0.582,0.553,��,4.9,��
2023/01/26,06:00,0.557,0.811,0.506,1.045,0.712,0.320,0.582,0.554,��,5.6,��
2023/01/26,06:10,0.556,0.810,0.509,1.047,0.714,0.320,0.581,0.554,��쐼,5.3,��
2023/01/26,06:20,0.556,0.810,0.508,1.043,0.714,0.321,0.582,0.554,��쐼,5.6,��
2023/01/26,06:30,0.557,0.812,0.510,1.046,0.715,0.321,0.582,0.553,��쐼,5.8,��
2023/01/26,06:40,0.556,0.811,0.508,1.045,0.717,0.319,0.582,0.553,��쐼,5.8,��
2023/01/26,06:50,0.555,0.810,0.508,1.044,0.713,0.320,0.582,0.552,�쐼,5.3,��
2023/01/26,07:00,0.556,0.811,0.509,1.044,0.712,0.320,0.582,0.553,�쐼,4.6,��
2023/01/26,07:10,0.556,0.811,0.509,1.045,0.712,0.320,0.584,0.553,��쐼,3.8,��
2023/01/26,07:20,0.557,0.810,0.509,1.045,0.714,0.319,0.580,0.552,��쐼,3.8,��
2023/01/26,07:30,0.556,0.813,0.511,1.044,0.714,0.319,0.581,0.554,��,3.1,��
2023/01/26,07:40,0.557,0.811,0.509,1.046,0.714,0.319,0.582,0.554,��,4.1,��
2023/01/26,07:50,0.557,0.811,0.512,1.047,0.715,0.320,0.582,0.555,��,5.5,��
2023/01/26,08:00,0.558,0.812,0.510,1.046,0.715,0.320,0.581,0.553,��,5.6,��
2023/01/26,08:10,0.557,0.809,0.509,1.045,0.714,0.320,0.582,0.552,��쐼,5.5,��
2023/01/26,08:20,0.558,0.807,0.511,1.044,0.713,0.320,0.582,0.553,��쐼,4.9,��
2023/01/26,08:30,0.557,0.810,0.510,1.044,0.714,0.320,0.583,0.552,��쐼,5.2,��
2023/01/26,08:40,0.557,0.810,0.512,1.046,0.715,0.319,0.582,0.552,��쐼,3.5,��
2023/01/26,08:50,0.559,0.811,0.510,1.045,0.714,0.319,0.582,0.553,��쐼,2.2,��
2023/01/26,09:00,0.559,0.813,0.510,1.045,0.715,0.320,0.584,0.553,�쐼,4.1,��
2023/01/26,09:10,0.557,0.810,0.510,1.046,0.715,0.320,0.584,0.554,���쐼,3.1,��
2023/01/26,09:20,0.560,0.812,0.511,1.046,0.714,0.318,0.583,0.554,��,1.5,��
2023/01/26,09:30,0.559,0.810,0.512,1.045,0.715,0.320,0.582,0.553,���k��,1.8,��
2023/01/26,09:40,0.559,0.810,0.509,1.046,0.715,0.319,0.584,0.555,��,2.4,��
2023/01/26,09:50,0.559,0.812,0.510,1.047,0.716,0.318,0.583,0.553,��,5.0,��
2023/01/26,10:00,0.560,0.812,0.510,1.046,0.715,0.318,0.583,0.553,���쐼,4.4,��
2023/01/26,10:10,0.559,0.811,0.511,1.049,0.714,0.318,0.581,0.553,��,2.7,��
2023/01/26,10:20,0.559,0.811,0.510,1.045,0.714,0.320,0.582,0.554,���쐼,3.9,��
2023/01/26,10:30,0.561,0.812,0.511,1.046,0.715,0.321,0.582,0.553,��,5.0,��
2023/01/26,10:40,0.560,0.811,0.509,1.048,0.716,0.320,0.583,0.554,���k��,5.5,��
2023/01/26,10:50,0.561,0.810,0.509,1.047,0.716,0.321,0.583,0.553,���k��,4.7,��
2023/01/26,11:00,0.560,0.813,0.512,1.045,0.716,0.321,0.582,0.553,���k��,5.8,��
2023/01/26,11:10,0.561,0.812,0.512,1.048,0.717,0.321,0.582,0.556,���k��,6.1,��
2023/01/26,11:20,0.562,0.813,0.512,1.047,0.716,0.322,0.583,0.554,���k��,3.4,��
2023/01/26,11:30,0.561,0.814,0.511,1.048,0.718,0.322,0.583,0.555,��,5.2,��
2023/01/26,11:40,0.562,0.814,0.513,1.046,0.718,0.321,0.585,0.554,���k��,4.2,��
2023/01/26,11:50,0.562,0.814,0.511,1.047,0.718,0.321,0.583,0.556,���k��,3.6,��
2023/01/26,12:00,0.563,0.813,0.510,1.049,0.719,0.321,0.584,0.555,�k��,5.8,��
2023/01/26,12:10,0.563,0.814,0.511,1.048,0.720,0.323,0.583,0.555,��,6.0,��
2023/01/26,12:20,0.563,0.816,0.512,1.047,0.719,0.323,0.583,0.557,��,6.6,��
2023/01/26,12:30,0.563,0.811,0.510,1.046,0.718,0.322,0.584,0.557,��,5.0,��
2023/01/26,12:40,0.564,0.813,0.509,1.047,0.717,0.322,0.584,0.558,��,4.9,��
2023/01/26,12:50,0.565,0.812,0.509,1.047,0.717,0.321,0.585,0.558,��,6.0,��
2023/01/26,13:00,0.562,0.813,0.511,1.048,0.719,0.322,0.584,0.555,��,6.3,��
2023/01/26,13:10,0.564,0.812,0.512,1.048,0.717,0.322,0.584,0.556,��,4.9,��
2023/01/26,13:20,0.563,0.813,0.512,1.048,0.718,0.322,0.585,0.556,��,7.1,��
2023/01/26,13:30,0.563,0.810,0.511,1.047,0.718,0.322,0.586,0.556,-,-,��
2023/01/26,13:40,0.563,0.812,0.513,1.050,0.720,0.322,0.586,0.555,-,-,-
2023/01/26,13:50,0.562,0.811,0.512,1.049,0.719,0.322,0.586,0.556,-,-,-
2023/01/26,14:00,0.562,0.809,0.512,1.047,0.719,0.322,0.586,0.557,-,-,-
2023/01/26,14:10,0.564,0.810,0.512,1.048,0.719,0.323,0.585,0.555,-,-,-
2023/01/26,14:20,0.563,0.811,0.513,1.049,0.720,0.322,0.587,0.556,-,-,-
2023/01/26,14:30,0.560,0.809,0.513,1.048,0.720,0.321,0.586,0.558,-,-,-
2023/01/26,14:40,0.563,0.807,0.513,1.047,0.721,0.322,0.586,0.557,-,-,-
2023/01/26,14:50,0.564,0.811,0.513,1.049,0.722,0.322,0.585,0.556,-,-,-
2023/01/26,15:00,0.563,0.811,0.513,1.048,0.723,0.322,0.587,0.557,-,-,-
2023/01/26,15:10,0.562,0.812,0.512,1.049,0.721,0.321,0.587,0.557,-,-,-
2023/01/26,15:20,0.562,0.813,0.514,1.048,0.722,0.322,0.586,0.557,��,6.4,��
2023/01/26,15:30,0.562,0.814,0.514,1.048,0.722,0.321,0.586,0.556,��,5.5,��
2023/01/26,15:40,0.564,0.815,0.512,1.049,0.722,0.323,0.586,0.557,��,4.9,��
2023/01/26,15:50,0.564,0.816,0.512,1.049,0.722,0.322,0.586,0.556,��,5.5,��
2023/01/26,16:00,0.562,0.815,0.514,1.049,0.722,0.322,0.585,0.556,���k��,4.5,��
2023/01/26,16:10,0.563,0.817,0.513,1.051,0.720,0.322,0.586,0.557,���k��,5.0,��
2023/01/26,16:20,0.564,0.816,0.511,1.049,0.721,0.321,0.585,0.556,���k��,4.9,��
2023/01/26,16:30,0.565,0.816,0.513,1.048,0.721,0.321,0.584,0.556,���k��,5.2,��
2023/01/26,16:40,0.563,0.814,0.516,1.050,0.720,0.321,0.584,0.556,���k��,4.4,��
2023/01/26,16:50,0.562,0.817,0.513,1.051,0.719,0.322,0.585,0.556,�k��,6.1,��
2023/01/26,17:00,0.561,0.817,0.514,1.051,0.722,0.320,0.586,0.556,�k��,5.6,��
2023/01/26,17:10,0.562,0.815,0.512,1.048,0.721,0.321,0.585,0.555,�k��,7.8,��
2023/01/26,17:20,0.561,0.814,0.514,1.049,0.719,0.321,0.585,0.556,�k��,6.9,��
2023/01/26,17:30,0.562,0.816,0.511,1.047,0.721,0.321,0.586,0.554,�k��,8.2,��
2023/01/26,17:40,0.562,0.814,0.512,1.050,0.721,0.322,0.583,0.554,�k��,6.0,��
2023/01/26,17:50,0.561,0.815,0.512,1.050,0.720,0.321,0.585,0.555,�k��,7.1,��
2023/01/26,18:00,0.562,0.816,0.512,1.047,0.719,0.320,0.585,0.555,���k��,7.2,��
2023/01/26,18:10,0.561,0.815,0.510,1.048,0.719,0.320,0.584,0.554,���k��,6.9,��
2023/01/26,18:20,0.563,0.815,0.511,1.046,0.721,0.320,0.586,0.556,���k��,4.6,��
2023/01/26,18:30,0.562,0.814,0.511,1.050,0.720,0.321,0.585,0.555,��,4.5,��
2023/01/26,18:40,0.563,0.813,0.513,1.050,0.719,0.321,0.584,0.555,���k��,5.0,��
2023/01/26,18:50,0.561,0.813,0.513,1.050,0.719,0.321,0.584,0.555,���k��,4.1,��
2023/01/26,19:00,0.560,0.815,0.513,1.050,0.721,0.322,0.585,0.556,���k��,4.5,��
2023/01/26,19:10,0.562,0.817,0.513,1.047,0.720,0.322,0.585,0.554,���k��,3.4,��
2023/01/26,19:20,0.561,0.814,0.513,1.052,0.721,0.321,0.584,0.555,���k��,5.2,��
2023/01/26,19:30,0.562,0.816,0.511,1.048,0.722,0.322,0.583,0.555,���k��,6.6,��
2023/01/26,19:40,0.562,0.815,0.512,1.049,0.720,0.322,0.583,0.556,���k��,7.7,��
2023/01/26,19:50,0.562,0.814,0.513,1.050,0.721,0.322,0.586,0.556,���k��,6.3,��
2023/01/26,20:00,0.561,0.817,0.511,1.048,0.719,0.322,0.584,0.554,���k��,8.5,��
2023/01/26,20:10,0.563,0.816,0.512,1.049,0.721,0.321,0.584,0.555,���k��,7.1,��
2023/01/26,20:20,0.561,0.816,0.510,1.047,0.719,0.322,0.584,0.553,���k��,6.9,��
2023/01/26,20:30,0.561,0.816,0.511,1.048,0.722,0.321,0.585,0.554,���k��,7.4,��
2023/01/26,20:40,0.560,0.816,0.510,1.051,0.720,0.322,0.583,0.555,���k��,6.6,��
2023/01/26,20:50,0.562,0.815,0.511,1.050,0.721,0.321,0.584,0.554,���k��,5.5,��
2023/01/26,21:00,0.563,0.816,0.510,1.051,0.719,0.322,0.585,0.556,���k��,5.2,��
2023/01/26,21:10,0.561,0.816,0.512,1.051,0.721,0.321,0.583,0.555,���k��,5.6,��
2023/01/26,21:20,0.562,0.816,0.513,1.049,0.719,0.321,0.585,0.556,�k��,5.3,��
2023/01/26,21:30,0.562,0.812,0.513,1.049,0.721,0.320,0.586,0.554,���k��,6.4,��
2023/01/26,21:40,0.561,0.814,0.512,1.046,0.722,0.322,0.585,0.555,���k��,6.7,��
2023/01/26,21:50,0.560,0.815,0.511,1.047,0.720,0.320,0.584,0.554,���k��,5.0,��
2023/01/26,22:00,0.560,0.814,0.511,1.047,0.720,0.321,0.583,0.555,���k��,6.3,��
2023/01/26,22:10,0.558,0.815,0.513,1.049,0.720,0.321,0.584,0.554,���k��,5.8,��
2023/01/26,22:20,0.561,0.815,0.511,1.047,0.720,0.320,0.581,0.555,���k��,5.0,��
2023/01/26,22:30,0.560,0.816,0.512,1.047,0.719,0.322,0.582,0.554,���k��,3.4,��
2023/01/26,22:40,0.562,0.814,0.511,1.047,0.719,0.321,0.584,0.554,�k��,2.9,��
2023/01/26,22:50,0.561,0.816,0.510,1.051,0.720,0.322,0.584,0.554,���k��,4.7,��
2023/01/26,23:00,0.562,0.816,0.512,1.049,0.720,0.322,0.584,0.554,���k��,5.2,��
2023/01/26,23:10,0.560,0.818,0.512,1.048,0.720,0.321,0.582,0.555,���k��,6.9,��
2023/01/26,23:20,0.561,0.814,0.512,1.046,0.720,0.322,0.584,0.555,���k��,6.1,��
2023/01/26,23:30,0.560,0.816,0.513,1.050,0.718,0.321,0.584,0.556,�k��,6.3,��
2023/01/26,23:40,0.561,0.813,0.511,1.047,0.719,0.321,0.584,0.556,�k��,5.6,��
2023/01/26,23:50,0.561,0.814,0.511,1.049,0.719,0.321,0.583,0.555,�k��,6.6,��
